Weather History for KJAN - March, 2013

Change the Weather History Date:

Sunday, March 17, 2013

  Actual Average Record
Temperature  
Mean Temperature 64 °F 57 °F  
Max Temperature 78 °F 69 °F 88 °F (1907)
Min Temperature 50 °F 46 °F 29 °F (1931)
Degree Days  
Heating Degree Days 1 9  
Month to date heating degree days 233 178  
Since 1 July heating degree days 1984 2170  
Cooling Degree Days 0 1  
Month to date cooling degree days 0 14  
Year to date cooling degree days 14 24  
Growing Degree Days 14 (Base 50)    
Moisture  
Dew Point 54 °F    
Average Humidity 69    
Maximum Humidity 93    
Minimum Humidity 45    
Precipitation  
Precipitation T in 0.15 in 2.54 in (1945)
Month to date precipitation 2.70 2.73  
Year to date precipitation 20.14 12.46  
Sea Level Pressure  
Sea Level Pressure 29.89 in    
Wind  
Wind Speed 9 mph (South)    
Max Wind Speed 20 mph    
Max Gust Speed 24 mph    
Visibility 10 miles    
Events      
T = Trace of Precipitation, MM = Missing Value Source: NWS Daily Summary

Daily Weather History Graph

Daily Weather History Graph

Search for Another Location

Airport or City:

Trip Planner

Search our weather history database for the weather conditions in past years. The results will help you decide how hot, cold, wet, or windy it might be!

Date:

Astronomy

Mar. 17, 2013 Rise Set
Actual Time 7:07 AM CDT 7:09 PM CDT
Civil Twilight 6:43 AM CDT 7:34 PM CDT
Nautical Twilight 6:14 AM CDT 8:02 PM CDT
Astronomical Twilight 5:46 AM CDT 8:31 PM CDT
Moon 10:39 AM CDT (3/17) No Moon Set
Length of Visible Light 12h 51m
Length of Day
12h 02m
Waxing Crescent, 31% of the Moon is Illuminated
Mar 17
Waxing Crescent
Mar 19
First Quarter
Mar 27
Full
Apr 2
Last Quarter
Apr 10
New

Hourly Weather History & Observations

Time (CDT) Temp. Dew Point Humidity Pressure Visibility Wind Dir Wind Speed Gust Speed Precip Events Conditions
12:54 AM 60.1 °F 51.1 °F 72% 29.95 in 10.0 mi South 10.4 mph - N/A   Clear
1:54 AM 57.0 °F 50.0 °F 77% 29.94 in 10.0 mi South 8.1 mph - N/A   Clear
2:54 AM 54.0 °F 48.9 °F 83% 29.94 in 10.0 mi South 4.6 mph - N/A   Clear
3:54 AM 53.1 °F 48.9 °F 86% 29.93 in 10.0 mi South 5.8 mph - N/A   Clear
4:54 AM 51.1 °F 48.0 °F 89% 29.93 in 10.0 mi SSE 5.8 mph - N/A   Clear
5:54 AM 52.0 °F 48.9 °F 89% 29.93 in 10.0 mi South 4.6 mph - N/A   Clear
6:54 AM 51.1 °F 48.9 °F 92% 29.95 in 10.0 mi SSE 3.5 mph - N/A   Clear
7:54 AM 53.1 °F 51.1 °F 93% 29.96 in 7.0 mi SSW 4.6 mph - N/A   Partly Cloudy
8:11 AM 55.4 °F 53.6 °F 94% 29.96 in 8.0 mi South 5.8 mph - N/A   Mostly Cloudy
8:39 AM 57.2 °F 53.6 °F 88% 29.96 in 7.0 mi South 8.1 mph - N/A   Scattered Clouds
8:54 AM 57.0 °F 54.0 °F 89% 29.96 in 7.0 mi South 8.1 mph - N/A   Scattered Clouds
9:06 AM 57.2 °F 55.4 °F 94% 29.97 in 7.0 mi South 8.1 mph - N/A   Mostly Cloudy
9:34 AM 60.8 °F 55.4 °F 82% 29.98 in 9.0 mi SSE 6.9 mph - N/A   Scattered Clouds
9:54 AM 62.1 °F 55.9 °F 80% 29.98 in 10.0 mi South 5.8 mph - N/A   Scattered Clouds
10:54 AM 66.0 °F 57.0 °F 73% 29.96 in 10.0 mi South 10.4 mph - N/A   Scattered Clouds
11:54 AM 71.1 °F 57.9 °F 63% 29.94 in 10.0 mi SSW 13.8 mph 17.3 mph N/A   Mostly Cloudy
12:54 PM 73.0 °F 55.9 °F 55% 29.91 in 10.0 mi West 9.2 mph 18.4 mph N/A   Scattered Clouds
1:54 PM 73.9 °F 55.0 °F 52% 29.88 in 10.0 mi WNW 3.5 mph - N/A   Mostly Cloudy
2:54 PM 75.9 °F 55.0 °F 48% 29.84 in 10.0 mi SW 5.8 mph - N/A   Partly Cloudy
3:54 PM 78.1 °F 55.0 °F 45% 29.81 in 10.0 mi South 12.7 mph 19.6 mph N/A   Mostly Cloudy
4:54 PM 77.0 °F 55.0 °F 47% 29.79 in 10.0 mi South 16.1 mph 20.7 mph N/A   Mostly Cloudy
5:54 PM 75.9 °F 55.9 °F 50% 29.77 in 10.0 mi SSE 13.8 mph 18.4 mph N/A   Overcast
6:54 PM 72.0 °F 55.9 °F 57% 29.78 in 10.0 mi South 12.7 mph - N/A   Partly Cloudy
7:54 PM 68.0 °F 57.9 °F 70% 29.79 in 10.0 mi South 6.9 mph - N/A   Clear
8:54 PM 66.0 °F 57.9 °F 75% 29.80 in 10.0 mi SSE 8.1 mph - N/A   Clear
9:54 PM 66.9 °F 57.9 °F 73% 29.81 in 10.0 mi South 10.4 mph - N/A   Clear
10:54 PM 66.0 °F 57.9 °F 75% 29.82 in 10.0 mi South 12.7 mph - N/A   Scattered Clouds
11:54 PM 66.0 °F 57.9 °F 75% 29.81 in 10.0 mi SSE 12.7 mph - N/A   Mostly Cloudy